www.pogodaiklimat.ru

Погода и климат >> Архив погоды >> Молдова >> Кишинев


АРХИВ ПОГОДЫ в Кишиневе

Время (UTC), дата Ветер
(напр.,м/с)
 
Видим.   Явления Облачность Т
(С)
Тd
(С)
f
(%)
Тe
(С)
Тes
(С)
Комфортность P
(гПа)
Po
(гПа)
Тmin
(С)
Tmax
(С)
R
(мм)
R24
(мм)
S
(см)
12 11.10 С 2 20 км ясно +19.7 +6.8 43 +21 +26 комфорт 1026.5 1006.5
15 11.10 С 1 20 км ясно +19.2 +6.0 42 +21 +21 комфорт 1026.1 1006.0
18 11.10 С 2 20 км ясно +15.9 +6.3 53 +16 +16 тепло 1026.7 1006.4 +20.6
21 11.10 С 2 20 км ясно +14.3 +5.4 55 +14 +14 тепло 1027.4 1007.0
00 12.10 С 2 20 км ясно +12.9 +4.8 58 +12 +12 тепло 1027.7 1007.2
03 12.10 С 3 20 км ясно +11.5 +4.7 63 +10 +10 по сезону 1028.4 1007.7
06 12.10 С 3 10 км 4/0
[Ac trans Ci fib]
+10.7 +5.5 70 +9 +10 по сезону 1029.9 1009.2 +10.3
09 12.10 СВ 2 20 км 3/0
[Ci fib]
+15.8 +6.8 55 +16 +22 тепло 1030.4 1010.0
12 12.10 СВ 2 20 км 1/0
[Ci fib]
+19.9 +6.3 41 +21 +26 комфорт 1029.6 1009.5
15 12.10 штиль 0 20 км ясно +18.8 +6.3 44 +19 +19 тепло 1029.6 1009.4
18 12.10 С 1 20 км ясно +15.9 +7.4 57 +17 +17 тепло 1030.3 1009.9 +20.3
21 12.10 В 1 20 км ясно +13.8 +4.4 53 +14 +14 тепло 1031.3 1010.7
00 13.10 С 3 20 км ясно +11.5 +3.5 58 +10 +10 по сезону 1031.3 1010.6
03 13.10 С 2 20 км 3/0
[Ci fib]
+9.5 +1.4 57 +8 +8 по сезону 1031.6 1010.7
06 13.10 С 2 20 км ясно +9.2 +1.4 58 +8 +9 по сезону 1032.4 1011.5 +8.8
09 13.10 В 3 20 км ясно +15.3 -1.7 31 +15 +20 тепло 1032.0 1011.5
12 13.10 В 3 20 км ясно +18.8 -4.6 20 +19 +23 тепло 1030.5 1010.3
15 13.10 штиль 0 20 км ясно +17.7 -5.5 20 +18 +18 тепло 1029.5 1009.2
18 13.10 В 1 20 км ясно +15.0 -6.0 23 +16 +16 тепло 1030.5 1010.0 +19.6
21 13.10 С 2 20 км ясно +12.1 -4.5 31 +12 +12 тепло 1030.8 1010.1
00 14.10 С 3 20 км ясно +10.5 -3.9 36 +9 +9 по сезону 1031.0 1010.2
03 14.10 С 2 20 км ясно +8.6 -2.7 45 +7 +7 по сезону 1030.6 1009.7
06 14.10 С 3 20 км ясно +9.3 -1.4 47 +7 +8 по сезону 1030.9 1010.0 +8.0
09 14.10 СВ 2 20 км ясно +15.6 +1.0 37 +16 +22 тепло 1030.4 1010.0
12 14.10 В 2 20 км ясно +20.1 +1.5 29 +21 +26 комфорт 1028.8 1008.7
15 14.10 В 1 20 км ясно +19.0 +0.1 28 +20 +20 тепло 1028.0 1007.9
18 14.10 СВ 1 20 км ясно +16.3 +0.8 35 +17 +17 тепло 1028.2 1007.9 +20.4
21 14.10 штиль 0 20 км ясно +13.2 +1.8 46 +13 +13 тепло 1028.8 1008.2
00 15.10 С 3 20 км ясно +11.8 +1.9 51 +10 +10 тепло 1028.9 1008.2
03 15.10 С 2 20 км ясно +10.5 +1.6 54 +9 +9 по сезону 1028.2 1007.5
06 15.10 С 2 20 км ясно +10.7 +1.5 53 +10 +11 тепло 1028.2 1007.5 +9.5
09 15.10 С 2 20 км 4/0
[Ci fib]
+16.7 +2.3 38 +17 +22 тепло 1027.8 1007.5
12 15.10 СВ 3 20 км 5/0
[Ci fib]
+20.8 +1.6 28 +21 +25 комфорт 1026.0 1006.0
15 15.10 В 2 20 км 5/0
[Ac trans Ci fib]
+19.8 +3.1 33 +21 +21 комфорт 1025.2 1005.2
18 15.10 В 2 20 км 3/0
[Ac trans Ci fib]
+16.4 +3.8 43 +17 +17 тепло 1026.2 1005.9 +22.0
21 15.10 СВ 1 20 км 3/0
[Ac trans Ci fib]
+15.1 +4.5 49 +16 +16 тепло 1026.1 1005.7
00 16.10 СВ 2 20 км ясно +13.6 +4.7 55 +13 +13 тепло 1026.1 1005.6
03 16.10 С 2 20 км 5/0
[Ci fib]
+11.6 +4.6 62 +11 +11 тепло 1025.9 1005.3
06 16.10 С 2 20 км 3/0
[Ci fib]
+11.6 +5.0 64 +11 +11 тепло 1026.3 1005.7 +10.7
09 16.10 СВ 2 20 км 3/0
[Ci fib]
+18.5 +6.7 46 +19 +25 тепло 1025.8 1005.7
12 16.10 ЮВ 4 20 км ясно +23.1 +3.6 28 +23 +26 комфорт 1024.3 1004.5
15 16.10 В 1 20 км 1/0
[Ci fib]
+21.5 +4.1 32 +22 +22 комфорт 1023.9 1004.0
18 16.10 штиль 0 20 км ясно +19.3 +5.0 39 +20 +20 тепло 1024.3 1004.3 +23.5
21 16.10 С 2 20 км ясно +17.1 +5.7 47 +17 +17 тепло 1024.4 1004.2
00 17.10 В 1 20 км ясно +15.2 +5.7 53 +16 +16 тепло 1024.5 1004.2
03 17.10 С 3 20 км 3/0
[Ci fib]
+13.4 +6.0 61 +12 +12 тепло 1024.1 1003.7
06 17.10 С 3 20 км ясно +13.2 +6.5 64 +12 +13 тепло 1024.7 1004.2 +12.2
09 17.10 СВ 2 20 км ясно +19.6 +8.3 48 +21 +27 комфорт 1024.2 1004.2
12 17.10 В 3 20 км 1/0
[Ci fib]
+22.9 +7.1 36 +24 +27 комфорт 1022.3 1002.6
15 17.10 В 1 20 км ясно +21.7 +6.0 36 +22 +22 комфорт 1021.7 1001.9
18 17.10 В 2 20 км ясно +18.3 +5.2 42 +19 +19 тепло 1022.5 1002.4 +23.4
21 17.10 СВ 2 20 км ясно +16.0 +5.6 50 +16 +16 тепло 1022.4 1002.2
00 18.10 СВ 2 20 км ясно +13.7 +6.1 60 +13 +13 тепло 1022.4 1002.0
03 18.10 С 3 20 км ясно +11.8 +6.3 69 +10 +10 тепло 1021.9 1001.4
06 18.10 С 3 20 км ясно +12.3 +6.1 66 +11 +12 тепло 1021.7 1001.2 +11.7
09 18.10 СВ 2 20 км ясно +17.8 +6.3 47 +18 +24 тепло 1020.8 1000.7

 

Местоположение метеостанции Кишинев (Молдова): широта 47.02 долгота 28.98 высота над уровнем моря 173 м.

В архиве по умолчанию представлена погода в Кишиневе за последнюю неделю. Архивные данные за месяц целиком и за предыдущие месяцы, начиная с января 2011 года, Вы можете получить, выбрав интересующий диапазон дат из раскрывающегося списка и нажав кнопку "Ввод!".


*Определитесь, кто Вы:
робот инопланетянин человек

Внимание! Время в таблицах - всемирное. Для получения местного времени необходимо прибавить поправку, которая в Кишиневе равна 2 ч.

Смотрите также архив погоды в соседних городах и на ближайших метеорологических станциях:

Погода в Балцате (Молдова) (5 км)
Погода в Дубоссарах (Молдова) (29 км)
Погода в Кодрах (Молдова) (46 км)
Погода в Тирасполе (Молдова) (49 км)
Погода в Бравичах (Молдова) (57 км)
Погода в Штефан Водэ (Молдова) (67 км)
Погода в Корнестах (Молдова) (76 км)
Погода в Затишье (Одесская область, Украина) (76 км)
Погода в Леове (Молдова) (80 км)
Погода в Заставе (Одесская область, Украина) (81 км)

Пояснения к столбцам:

Ветер - указаны скорость ветра в м/с - средняя за 10 мин, порывы в срок и между сроками (в фигурных скобках) и направление, откуда дует ветер: С - северный, СВ - северо-восточный, В - восточный, ЮВ - юго-восточный, Ю - южный, ЮЗ - юго-западный, З - западный, СЗ - северо-западный.
Видимость - горизонтальная дальность видимости в метрах или километрах. При видимости от 1 до 10 км при отсутствии осадков обычно наблюдается дымка, при ухудшении видимости до 1 км и менее - туман. В сухую погоду видимость может ухудшаться дымом, пылью или мглою.
Явления - указаны атмосферные явления, наблюдавшиеся в срок или в последний час перед сроком; фигурными скобками обозначены явления, наблюдавшиеся между сроками (за 1-3 часа до срока); квадратными скобками обозначены град или гололедные отложения с указанием их диаметра в мм.
Облачность - указаны через наклонную черту общая и нижняя облачность в баллах и высота нижней границы облаков в метрах; квадратными скобками обозначены формы облаков: Ci - перистые, Cs - перисто-слоистые, Cc - перисто-кучевые, Ac - высококучевые, As - высокослоистые, Sc - слоисто-кучевые, Ns - слоисто-дождевые, Cu - кучевые, Cb - кучево-дождевые. Подробнее классификацию облаков см. в Атласе облаков (PDF).
T - Температура воздуха - температура, измеренная на высоте 2 м над землей.
Td - Температура точки росы - температура, при понижении до которой содержащийся в воздухе водяной пар достигнет насыщения.
f - Относительная влажность воздуха - влажноcть воздуха, измеренная на высоте 2 м над землей.
Te - Эффективная температура - температура, которую ощущает одетый по сезону человек в тени. Характеристика душности погоды. При расчете учитывается влияние влажности воздуха и скорости ветра на теплоощущения человека.
Tes - Эффективная температура на солнце - температура, которую ощущает человек, с поправкой на солнечный нагрев. Характеристика знойности погоды. Зависит от высоты солнца над горизонтом, облачности и скорости ветра. Ночью, в пасмурную погоду, а также при ветре 12 м/с и более поправка равна нулю.
P - Атмосферное давление - приведенное к уровню моря атмосферное давление.
Po - Атмосферное давление - измеренное на уровне метеостанции атмосферное давление.
Tmin - Минимальная температура - минимум температуры воздуха на высоте 2 м над землей.
Tmax - Максимальная температура - максимум температуры воздуха на высоте 2 м над землей.
R - Количество осадков - Количество выпавших осадков за период времени, мм. При наведении курсора мыши на число - период времени, за который выпало указанное количество осадков.
R24 - Количество осадков - Количество выпавших осадков за 24 часа, мм.
S - Снежный покров - Высота снежного покрова, см. При наведении курсора мыши на число - состояние снежного покрова и степень покрытия местности в баллах.